This demonstration page uses our WeatherBlox Daily Observations layout. Learn more.

Hourly Observations for October 14, 2017

Temp ( °F °C ) Dew Point ( °F °C ) Humidity (%) Winds ( mph kmh ) Pressure ( in mb ) Visibility ( mi km ) Precip ( " mm )
12:54 am 00:54 Cloudy 57 13.9 52 11.1 83 83 ENE 6 9 30 1016 10 16.09344 0 0
1:54 am 01:54 Cloudy 57 13.9 53 11.7 87 87 NE 6 9 29.97 1015 9 14.484096 0 0
2:05 am 02:05 Cloudy 57 13.9 53 11.7 87 87 ENE 6 9 30 1016 9 14.484096 0 0
2:54 am 02:54 Cloudy 57 13.9 53 11.7 87 87 NW 5 7 30 1016 9 14.484096 0 0
3:54 am 03:54 Cloudy 55 12.8 50 10 83 83 N 9 15 29.97 1015 10 16.09344 0 0
4:35 am 04:35 Cloudy with Nearby Thunderstorms 54 12.2 50 10 87 87 N 3 6 30 1016 6 9.656064 0.02 0.508
4:52 am 04:52 Cloudy with Rain 54 12 52 11 94 94 E 9 15 29.94 1014 3 4.828032 0.07 1.778
4:54 am 04:54 Cloudy with Nearby Thunderstorms 53 11.7 51 10.6 93 93 E 8 13 29.91 1013 3 4.828032 0.08 2.032
5:20 am 05:20 Cloudy with Nearby Thunderstorms 53 11.7 52 11.1 96 96 ESE 8 13 29.94 1014 5 8.04672 0.09 2.286
5:54 am 05:54 Cloudy with Light Rain 54 12.2 52 11.1 93 93 Calm 29.94 1014 4 6.437376 0.16 4.064
6:22 am 06:22 Cloudy with Light Thunderstorms 54 12.2 52 11.1 93 93 NE 6 9 29.94 1014 5 8.04672 0.03 0.762
6:47 am 06:47 Cloudy with Nearby Thunderstorms 54 12.2 52 11.1 93 93 NE 6 9 29.91 1013 4 6.437376 0.06 1.524
6:54 am 06:54 Cloudy with Mist and Fog 54 12.2 52 11.1 93 93 ENE 6 9 29.91 1013 4 6.437376 0.06 1.524
7:52 am 07:52 Cloudy with Mist and Fog 55 13 54 12 94 94 Calm 29.91 1013 2 3.218688 0 0
7:54 am 07:54 Cloudy with Mist and Fog 55 12.8 54 12.2 96 96 Calm 29.88 1012 2 3.218688 0 0
8:54 am 08:54 Cloudy with Light Rain 55 12.8 53 11.7 93 93 WNW 3 6 29.91 1013 2 3.218688 0.001 0.001
9:06 am 09:06 Cloudy with Light Rain 55 12.8 54 12.2 96 96 Calm 29.91 1013 1.25 2.01168 0.001 0.001
9:33 am 09:33 Cloudy with Mist and Fog 56 13.3 54 12.2 93 93 Calm 29.88 1012 1.75 2.816352 0.001 0.001
9:42 am 09:42 Cloudy with Mist and Fog 56 13.3 54 12.2 93 93 Calm 29.88 1012 2.5 4.02336 0.001 0.001
9:54 am 09:54 Cloudy with Mist and Fog 57 13.9 55 12.8 93 93 NNE 3 6 29.85 1011 2.5 4.02336 0.001 0.001
10:03 am 10:03 Cloudy with Mist and Fog 57 13.9 55 12.8 93 93 Calm 29.88 1012 3 4.828032 0 0
10:25 am 10:25 Cloudy with Mist and Fog 57 13.9 56 13.3 96 96 N 7 11 29.85 1011 3 4.828032 0 0
10:34 am 10:34 Cloudy with Mist and Fog 58 14.4 56 13.3 93 93 N 7 11 29.85 1011 2.5 4.02336 0 0
10:54 am 10:54 Cloudy with Mist and Fog 58 14.4 56 13.3 93 93 NNW 5 7 29.83 1010 2.5 4.02336 0 0
11:09 am 11:09 Cloudy with Mist and Fog 58 14.4 56 13.3 93 93 NNW 3 6 29.85 1011 3 4.828032 0 0
11:46 am 11:46 Cloudy with Mist and Fog 58 14.4 57 13.9 97 97 N 10 17 29.83 1010 2.5 4.02336 0 0
11:54 am 11:54 Cloudy with Mist and Fog 58 14.4 57 13.9 97 97 N 12 19 29.8 1009 2.5 4.02336 0 0
12:08 pm 12:08 Cloudy with Mist and Fog 57 13.9 56 13.3 96 96 N 9 15 29.83 1010 1.25 2.01168 0 0
12:22 pm 12:22 Cloudy with Mist and Fog 57 13.9 56 13.3 96 96 N 10 17 29.8 1009 0.75 1.207008 0 0
12:54 pm 12:54 Cloudy with Fog 57 13.9 56 13.3 96 96 NNE 7 11 29.8 1009 0.5 0.804672 0 0
1:54 pm 13:54 Cloudy with Mist and Fog 57 13.9 56 13.3 96 96 NNW 7 11 29.8 1009 0.75 1.207008 0.001 0.001
2:18 pm 14:18 Cloudy with Mist and Fog 57 13.9 56 13.3 96 96 NNW 10 17 29.8 1009 1 1.609344 0 0
2:54 pm 14:54 Cloudy with Mist and Fog 57 13.9 56 13.3 96 96 NNW 12 19 29.77 1008 1.25 2.01168 0 0
3:22 pm 15:22 Cloudy with Mist and Fog 57 13.9 56 13.3 96 96 NW 10 17 29.8 1009 2.5 4.02336 0 0
3:50 pm 15:50 Cloudy with Mist and Fog 57 14 55 13 94 94 NW 10 17 29.83 1010 2.5 4.02336 0 0
3:54 pm 15:54 Cloudy with Mist and Fog 58 14.4 55 12.8 90 90 NW 9 15 29.8 1009 2.5 4.02336 0 0
4:01 pm 16:01 Cloudy 58 14.4 56 13.3 93 93 NW 7 11 29.83 1010 7 11.265408 0 0
4:49 pm 16:49 Cloudy 59 15 55 13 88 88 WNW 3 6 29.8 1009 7 11.265408 0 0
4:54 pm 16:54 Cloudy 59 15 56 13.3 90 90 WNW 3 6 29.83 1010 7 11.265408 0 0
5:32 pm 17:32 Cloudy 60 15.6 56 13.3 86 86 NW 10 17 29.85 1011 9 14.484096 0 0
5:54 pm 17:54 Cloudy 60 15.6 55 12.8 84 84 NW 16 26 29.88 1012 10 16.09344 0 0
6:50 pm 18:50 Cloudy 57 14 52 11 82 82 NW 23 37 29.94 1014 10 16.09344 0 0
6:54 pm 18:54 Cloudy 58 14.4 51 10.6 78 78 NW 24 39 29.91 1013 10 16.09344 0 0
7:31 pm 19:31 Cloudy 57 13.9 49 9.4 74 74 NW 16 26 29.94 1014 10 16.09344 0 0
7:54 pm 19:54 Cloudy 57 13.9 49 9.4 74 74 NW 23 37 29.94 1014 10 16.09344 0 0
8:51 pm 20:51 Cloudy 52 11 45 7 77 77 NNW 25 41 30 1016 10 16.09344 0 0
8:54 pm 20:54 Cloudy 52 11.1 44 6.7 75 75 NW 21 33 30 1016 10 16.09344 0 0
9:08 pm 21:08 Cloudy 52 11.1 43 6.1 72 72 NNW 23 37 30.03 1017 10 16.09344 0 0
9:54 pm 21:54 Partly Cloudy 51 10.6 42 5.6 71 71 NNW 26 43 30.06 1018 10 16.09344 0 0
10:24 pm 22:24 Mostly Cloudy 50 10 42 5.6 74 74 NNW 22 35 30.12 1020 10 16.09344 0 0
10:54 pm 22:54 Cloudy 51 10.6 42 5.6 71 71 NNW 24 39 30.09 1019 10 16.09344 0 0
11:28 pm 23:28 Cloudy 51 10.6 40 4.4 66 66 NNW 22 35 30.15 1021 10 16.09344 0 0
11:54 pm 23:54 Cloudy 50 10 40 4.4 68 68 NW 26 43 30.12 1020 10 16.09344 0 0

Powered by AerisWeather